Wind_Speed
19 14 9 11 10 10 11 7 11 16 13 8 16 10 5 7 7 6 19 17 16 15 16 17 16 16 15 14 12 12 11 8 8 12 15 15 13 13 15 15 15 15 16 16 16 16 17 16 17
17 17 14 14 16 14 10 13 14 13 10 10 11 2 2 1 5 14 16 18 16 13 13 15 14 13 13 14 12 10 7 3 2 15 18 16 13 16 17 15 16 16 17 17 18 17 18 18 17
10 10 13 10 14 13 10 9 7 7 7 3 3 5 4 5 4 16 15 16 16 13 12 12 13 12 12 13 12 11 10 11 14 24 22 17 14 17 17 16 16 16 18 18 18 18 17 17 17
12 13 17 18 15 14 13 10 11 10 7 4 2 2 8 10 17 16 16 15 14 13 11 11 11 11 10 10 11 13 14 16 23 22 22 16 17 18 16 16 16 17 18 18 18 17 17 16 18
12 12 10 10 11 9 9 7 8 8 7 7 9 14 19 20 17 17 15 16 13 12 11 10 10 10 10 9 10 12 14 15 16 21 21 15 16 17 16 15 15 17 17 18 18 18 17 16 17
14 12 15 15 12 12 9 8 6 9 8 6 5 13 19 22 17 17 15 15 15 11 10 9 9 9 9 10 10 12 14 15 14 15 16 14 15 15 15 14 14 15 15 15 15 15 16 15 16
12 11 14 15 13 12 10 10 11 8 8 7 6 5 17 21 20 17 16 15 14 14 11 10 9 9 9 10 10 11 13 14 15 15 13 14 14 14 14 13 13 13 13 13 13 13 15 15 14
13 12 10 11 13 10 10 10 10 6 7 7 7 4 12 19 19 17 17 15 14 14 13 12 10 9 11 11 11 11 12 12 14 14 13 12 12 11 12 12 10 11 11 10 12 13 13 14 12
18 17 15 12 8 7 7 7 7 8 5 8 5 6 9 15 17 16 15 15 14 13 13 12 12 10 11 12 11 11 11 12 13 13 12 11 10 9 10 10 10 9 10 9 8 10 10 12 11
21 18 15 14 9 8 8 11 10 9 5 6 5 7 11 15 14 14 12 12 12 12 12 12 11 11 10 11 10 9 9 9 10 11 11 9 10 9 8 10 9 8 9 9 8 8 8 9 8
22 17 14 12 13 11 9 11 12 14 10 7 8 6 12 15 15 15 14 14 12 12 11 11 11 10 10 10 10 10 9 9 9 9 10 7 5 7 6 6 6 6 6 7 9 8 8 6 7
22 16 10 10 9 10 9 10 12 12 10 13 12 9 10 14 12 13 12 11 12 10 9 9 9 9 8 8 8 9 8 8 9 8 8 7 5 5 6 7 8 7 7 7 7 8 7 6 6
15 12 8 7 6 5 7 6 7 12 13 11 12 14 12 14 12 13 13 14 12 11 9 8 8 8 7 7 7 6 7 8 8 8 8 8 6 5 6 6 6 7 8 7 6 6 5 5 6
14 10 5 6 7 5 3 5 6 9 11 14 15 12 14 12 10 10 13 14 13 11 9 8 8 8 7 6 6 6 6 7 8 7 6 7 6 6 5 5 6 6 6 6 5 4 6 5 5
12 13 5 5 4 4 6 2 4 5 10 9 13 17 13 13 11 11 13 14 14 12 11 9 9 7 5 5 6 6 6 6 8 7 6 5 6 6 5 5 4 5 4 5 3 3 4 5 4
15 11 6 8 6 2 1 5 3 4 4 8 8 11 16 15 15 15 15 14 13 13 12 11 9 7 6 6 6 6 6 7 6 7 6 5 7 6 7 7 8 6 6 5 4 6 5 5 5
16 15 15 11 5 4 1 4 7 3 3 4 5 5 8 16 18 16 16 16 15 14 12 10 8 6 5 4 5 5 5 6 6 5 6 6 6 6 8 10 9 8 7 6 6 6 7 8 8
10 9 10 13 14 2 5 8 8 8 7 6 6 7 8 8 9 13 17 16 17 16 15 12 9 7 4 3 3 3 3 3 4 5 6 6 6 7 7 9 9 8 8 7 8 9 10 9 9
6 7 7 7 11 9 8 9 5 4 6 6 5 5 7 11 11 13 12 14 16 16 15 12 9 6 4 3 3 4 5 5 4 6 7 7 7 6 7 7 9 10 11 12 10 9 9 9 9
4 6 8 8 10 11 8 8 7 6 3 2 6 3 4 10 7 8 13 14 12 11 13 12 12 9 6 4 4 4 6 8 8 8 7 7 8 8 8 8 8 9 9 11 10 9 10 7 9
2 4 7 8 11 11 11 12 13 13 10 8 6 5 9 8 9 7 4 5 15 15 11 12 11 10 9 7 8 6 7 10 10 8 7 7 8 8 9 10 10 9 8 9 9 8 9 9 8
7 7 8 8 10 11 9 9 5 12 14 11 11 13 13 12 10 11 9 7 7 13 15 15 13 11 11 12 11 8 7 9 9 11 11 12 11 11 11 11 11 11 10 9 9 10 10 11 11
9 11 14 15 13 11 2 4 4 8 3 7 7 12 12 11 15 13 10 7 5 11 13 14 17 16 14 13 13 11 9 9 13 12 13 14 14 13 13 12 12 12 12 12 11 10 11 10 11
14 15 16 8 5 3 3 7 1 15 11 8 12 13 12 11 15 16 10 12 10 10 14 15 16 17 16 14 13 12 8 8 11 11 11 13 14 15 14 13 13 14 13 12 12 12 10 10 10
5 7 4 1 2 0 8 5 5 12 13 7 12 13 9 12 11 14 13 9 8 11 8 12 14 17 16 14 13 11 10 8 7 8 10 10 12 12 12 14 14 14 15 15 15 13 12 12 11
2 5 6 3 4 7 6 6 7 15 15 7 6 6 11 10 10 10 16 13 9 8 10 9 12 15 17 14 12 12 12 10 9 9 9 10 10 10 13 13 13 14 16 17 16 16 13 13 12
2 3 5 2 3 3 4 9 4 15 7 4 3 3 8 12 9 10 9 9 12 12 8 8 9 12 16 16 17 15 14 12 10 10 11 11 11 11 13 15 13 13 12 16 16 16 13 14 13
1 1 2 1 1 4 3 3 13 15 9 9 3 2 8 9 9 10 5 9 9 9 14 12 15 15 17 16 21 20 19 16 15 15 13 12 13 13 13 15 15 15 14 12 15 15 15 13 14
2 3 2 1 1 3 4 3 7 12 10 14 14 8 1 2 5 6 8 8 6 10 13 13 13 20 22 21 23 19 18 15 15 16 15 14 15 16 15 15 16 16 15 14 14 14 14 16 17
4 2 5 3 2 5 3 6 2 3 7 9 11 12 12 7 3 4 4 3 4 9 10 10 15 20 23 25 27 26 23 20 14 14 13 15 16 17 17 17 18 17 17 17 17 17 18 18 17
Wind_Direction
107 118 116 101 87 86 83 105 135 138 134 123 148 128 113 99 58 123 146 138 135 131 128 127 124 115 114 111 115 124 119 90 100 134 136 128 122 125 121 111 107 112 116 115 113 112 108 105 105
94 91 94 87 106 94 87 123 142 142 137 138 151 102 213 338 39 139 141 140 136 131 127 126 122 116 109 109 115 116 110 77 121 147 141 129 114 121 118 113 115 117 114 114 115 112 112 111 108
101 88 95 97 99 89 104 128 135 156 160 181 217 282 200 131 134 139 138 138 134 130 122 122 116 112 106 107 114 112 104 73 109 140 138 125 119 119 120 120 115 115 114 114 115 113 112 113 112
99 80 90 96 92 91 97 89 108 128 124 95 60 137 140 130 138 135 131 128 127 123 120 115 113 112 108 106 112 116 106 105 111 129 139 119 123 118 120 117 117 115 108 112 114 112 111 111 111
85 85 97 85 85 94 101 82 99 114 114 97 102 115 119 121 128 129 125 120 118 118 115 115 119 121 124 119 120 124 116 111 122 131 133 127 127 124 120 120 118 113 110 110 110 108 109 112 111
67 87 90 87 99 98 110 107 106 91 109 98 96 135 125 124 131 130 126 122 119 115 111 114 121 130 132 130 129 126 123 119 117 119 129 132 127 130 126 119 120 119 116 111 110 112 113 109 110
64 74 79 85 97 104 104 108 92 90 92 103 94 133 140 135 137 138 131 127 122 118 113 110 113 128 141 138 131 129 131 124 122 123 127 131 130 131 131 127 123 121 118 120 115 116 107 109 107
49 55 57 71 93 98 93 100 90 92 108 126 125 155 166 145 142 145 139 135 130 125 119 112 110 124 138 140 135 134 130 138 134 128 128 129 131 133 132 131 127 126 133 125 122 121 122 118 114
54 60 56 54 57 74 65 68 93 101 120 130 126 125 159 159 145 147 144 139 134 128 121 116 113 120 133 135 136 135 136 145 145 140 134 124 128 131 129 135 137 135 139 137 134 125 121 135 115
48 53 58 67 88 70 61 56 60 71 71 107 130 120 132 161 143 141 137 135 134 128 125 122 119 120 126 130 134 135 136 142 147 155 147 147 135 132 141 138 142 146 147 148 148 140 134 133 139
48 47 53 70 93 80 58 53 48 56 88 102 83 121 130 153 147 147 145 142 144 139 131 127 125 124 123 127 135 138 143 147 153 161 159 158 139 138 156 142 136 142 137 143 160 159 158 160 153
33 50 44 63 89 87 68 59 59 50 80 121 120 126 132 153 153 148 144 140 139 138 135 126 122 123 123 131 136 140 147 144 148 158 167 175 183 168 169 168 165 166 153 151 156 164 166 175 182
38 24 41 41 53 81 87 65 64 78 72 105 117 129 142 158 156 162 158 152 150 142 134 126 118 118 121 126 136 147 153 149 154 161 169 178 179 182 192 190 175 173 163 161 167 172 180 203 226
38 43 53 40 38 31 59 100 77 101 100 96 111 135 148 165 177 177 160 150 148 142 138 134 130 126 121 125 139 162 173 164 158 163 157 160 162 163 181 191 181 174 179 180 194 201 214 220 221
49 54 101 27 28 21 13 33 147 106 124 131 116 118 140 166 168 155 146 139 142 139 131 122 139 136 130 116 123 159 172 175 170 174 171 171 178 166 180 187 183 186 195 216 216 255 229 239 254
52 65 69 28 9 325 12 45 330 129 129 141 157 136 141 149 158 165 159 156 148 137 130 125 122 123 122 122 118 139 162 165 163 165 187 191 200 190 196 197 196 192 197 209 238 253 259 257 273
53 49 60 51 53 6 319 345 360 343 221 166 149 160 169 155 164 167 169 162 154 151 138 130 128 133 136 131 127 138 171 183 206 188 190 191 193 201 193 202 197 196 201 216 239 250 262 271 281
14 50 49 42 32 8 325 4 326 314 300 259 186 191 180 188 167 153 162 167 168 163 162 164 155 142 137 149 161 175 165 185 181 210 211 207 193 204 199 207 209 210 213 229 238 240 254 268 288
56 59 55 41 29 32 23 13 326 245 252 248 262 283 193 137 186 201 189 169 178 180 179 177 183 182 159 156 185 191 200 195 193 203 223 226 220 212 213 210 217 233 242 242 245 245 255 270 285
66 38 10 7 353 343 334 331 327 290 340 277 264 210 251 200 214 195 212 215 192 177 183 188 188 198 188 199 205 205 214 215 209 210 211 220 232 237 229 226 229 239 243 244 247 248 257 274 285
16 346 338 337 336 332 309 302 291 267 272 282 271 258 230 234 240 230 203 175 210 204 188 180 188 201 211 215 227 237 224 219 222 224 223 226 229 239 245 238 237 246 248 246 245 249 255 255 283
308 303 330 321 318 312 320 304 343 209 237 240 264 278 259 233 217 240 229 184 181 201 198 180 187 200 218 227 234 239 234 205 214 223 222 234 240 243 242 243 241 242 246 252 249 248 249 258 265
292 291 312 314 300 302 287 321 18 69 331 283 259 260 264 245 227 227 247 198 164 192 205 211 206 202 215 221 232 234 233 213 210 218 229 238 245 249 249 245 246 247 242 245 253 250 248 257 269
275 298 315 323 303 208 350 353 25 12 337 261 253 260 211 243 212 213 219 236 225 204 206 216 216 211 211 218 225 233 223 215 207 216 224 236 246 253 256 253 249 247 246 244 250 254 259 259 264
288 341 339 30 11 88 325 337 334 340 344 251 245 252 231 229 212 211 200 208 226 218 221 228 226 219 210 214 218 224 213 221 216 222 220 231 239 248 254 255 255 249 243 241 246 253 256 261 266
31 49 34 8 333 322 341 353 342 356 347 327 219 227 225 238 192 218 210 213 220 223 223 238 232 222 219 212 210 211 214 221 221 217 222 222 231 242 245 253 257 253 251 247 248 255 258 261 270
176 341 24 12 333 294 359 353 40 353 343 359 133 178 216 184 181 207 222 237 245 247 257 233 241 226 220 214 209 211 215 218 227 231 233 232 230 235 254 264 267 264 262 263 253 248 248 267 276
116 118 26 256 281 316 330 1 341 354 7 21 14 128 153 163 191 202 207 231 263 258 248 237 243 236 223 242 227 205 206 214 224 227 233 238 239 238 245 263 269 271 264 268 259 247 269 260 270
107 72 52 57 231 284 294 304 353 354 40 46 47 31 353 151 195 200 212 235 243 245 258 267 260 241 241 243 215 221 218 208 218 234 231 236 246 246 247 254 260 263 268 268 265 262 265 270 274
145 95 15 341 281 253 264 273 300 356 77 65 52 53 50 53 109 186 193 293 259 262 271 271 279 271 250 245 225 260 241 223 223 227 231 234 241 246 249 250 258 263 266 268 269 268 266 269 273
Height
3181 3181 3181 3183 3188 3185 3184 3187 3187 3189 3191 3192 3193 3195 3196 3196 3197 3201 3200 3200 3202 3205 3206 3206 3208 3209 3210 3210 3211 3211 3211 3212 3212 3213 3215 3217 3219 3221 3222 3223 3224 3224 3224 3225 3226 3226 3227 3227 3228
3184 3184 3184 3184 3188 3186 3188 3188 3189 3191 3192 3193 3194 3195 3196 3198 3198 3199 3201 3202 3204 3207 3208 3208 3210 3211 3212 3213 3214 3213 3213 3213 3212 3214 3218 3220 3221 3222 3223 3225 3226 3226 3227 3228 3228 3229 3229 3230 3231
3185 3185 3187 3187 3187 3187 3190 3191 3192 3192 3193 3194 3195 3196 3196 3197 3199 3201 3203 3204 3206 3208 3209 3210 3211 3212 3214 3215 3215 3216 3216 3214 3212 3216 3220 3223 3224 3225 3226 3227 3228 3229 3230 3230 3231 3232 3232 3233 3234
3188 3188 3189 3189 3189 3190 3191 3192 3193 3194 3195 3195 3195 3195 3196 3197 3199 3203 3205 3206 3208 3209 3210 3212 3213 3214 3215 3217 3218 3219 3219 3217 3218 3220 3222 3225 3226 3227 3228 3230 3230 3231 3232 3234 3235 3235 3236 3236 3237
3190 3190 3190 3191 3191 3192 3193 3194 3195 3196 3196 3197 3197 3197 3197 3199 3202 3205 3207 3208 3211 3212 3212 3214 3214 3216 3217 3219 3220 3221 3222 3222 3222 3222 3225 3227 3229 3230 3231 3232 3233 3234 3236 3237 3238 3239 3239 3240 3240
3192 3193 3193 3193 3194 3195 3195 3196 3197 3198 3198 3198 3199 3200 3199 3200 3204 3206 3209 3210 3212 3214 3215 3216 3216 3218 3219 3221 3222 3223 3224 3224 3226 3227 3229 3230 3232 3232 3233 3234 3235 3237 3238 3239 3240 3241 3242 3243 3243
3195 3195 3195 3195 3196 3197 3197 3198 3199 3200 3200 3200 3202 3202 3202 3202 3204 3208 3210 3212 3214 3216 3217 3218 3219 3219 3220 3222 3224 3225 3226 3227 3229 3230 3232 3233 3234 3235 3236 3236 3237 3238 3239 3240 3242 3243 3244 3244 3245
3197 3197 3197 3198 3199 3199 3199 3199 3200 3201 3201 3201 3202 3203 3204 3203 3205 3209 3211 3214 3216 3218 3219 3220 3221 3221 3222 3224 3226 3227 3228 3229 3231 3232 3233 3235 3236 3237 3238 3239 3239 3240 3242 3243 3245 3245 3246 3246 3247
3200 3199 3199 3200 3200 3201 3200 3201 3202 3202 3202 3202 3202 3203 3204 3206 3207 3210 3213 3215 3217 3219 3220 3222 3223 3224 3224 3226 3228 3228 3229 3232 3232 3234 3235 3236 3238 3238 3240 3241 3241 3242 3244 3245 3246 3248 3248 3249 3249
3202 3202 3202 3202 3202 3202 3201 3202 3201 3203 3203 3203 3203 3204 3205 3208 3210 3212 3215 3217 3219 3220 3221 3223 3225 3226 3226 3227 3228 3230 3231 3232 3234 3235 3236 3238 3239 3241 3241 3242 3244 3244 3245 3246 3248 3249 3249 3250 3250
3204 3204 3204 3204 3204 3204 3203 3203 3202 3203 3203 3204 3205 3206 3206 3209 3211 3213 3215 3217 3219 3221 3222 3224 3226 3227 3228 3229 3230 3231 3232 3234 3235 3236 3237 3240 3241 3242 3243 3244 3244 3246 3246 3248 3248 3250 3251 3251 3251
3206 3206 3205 3206 3206 3206 3205 3205 3206 3205 3206 3204 3205 3207 3209 3211 3213 3214 3216 3218 3220 3222 3224 3225 3226 3228 3229 3230 3231 3232 3233 3235 3236 3238 3239 3241 3242 3243 3244 3245 3246 3247 3247 3248 3249 3249 3250 3251 3251
3208 3207 3207 3207 3207 3208 3207 3207 3208 3208 3208 3207 3206 3207 3210 3212 3213 3214 3216 3218 3220 3222 3225 3226 3227 3229 3230 3231 3232 3233 3234 3236 3237 3238 3239 3240 3242 3244 3245 3246 3247 3247 3248 3248 3249 3249 3250 3251 3250
3211 3209 3208 3208 3209 3208 3209 3210 3209 3211 3210 3210 3210 3209 3210 3213 3214 3216 3217 3219 3221 3223 3225 3227 3228 3229 3230 3231 3232 3233 3234 3236 3237 3238 3239 3240 3242 3243 3244 3246 3247 3248 3248 3249 3249 3250 3250 3250 3249
3211 3210 3210 3210 3210 3210 3210 3211 3211 3211 3213 3213 3213 3212 3211 3212 3215 3217 3219 3220 3222 3224 3226 3227 3228 3230 3230 3231 3232 3233 3234 3235 3237 3238 3239 3241 3242 3243 3244 3245 3245 3247 3248 3249 3250 3250 3250 3250 3250
3212 3212 3212 3212 3211 3212 3213 3213 3212 3212 3213 3214 3214 3215 3214 3214 3217 3218 3219 3221 3222 3224 3226 3228 3229 3230 3231 3231 3232 3233 3234 3235 3237 3239 3240 3241 3241 3243 3244 3245 3246 3246 3248 3249 3249 3249 3250 3249 3249
3213 3214 3213 3213 3213 3213 3213 3213 3212 3212 3213 3213 3215 3215 3216 3217 3218 3219 3219 3220 3222 3224 3226 3228 3229 3230 3231 3231 3232 3233 3235 3236 3237 3239 3240 3241 3242 3242 3243 3245 3246 3246 3247 3248 3249 3249 3249 3248 3248
3215 3215 3215 3215 3215 3213 3213 3213 3212 3212 3212 3213 3214 3215 3216 3218 3220 3220 3220 3220 3221 3222 3224 3226 3228 3229 3231 3232 3232 3233 3235 3236 3238 3238 3240 3241 3242 3242 3242 3244 3245 3246 3247 3248 3248 3248 3249 3248 3248
3215 3215 3216 3216 3215 3215 3213 3212 3211 3211 3211 3212 3213 3214 3216 3218 3218 3219 3220 3220 3221 3222 3223 3225 3228 3229 3230 3231 3232 3233 3234 3236 3238 3239 3239 3241 3242 3242 3242 3243 3244 3245 3245 3246 3246 3247 3247 3247 3247
3215 3215 3215 3215 3215 3214 3213 3212 3211 3210 3211 3211 3211 3213 3215 3216 3217 3218 3219 3220 3220 3222 3223 3224 3226 3228 3230 3231 3232 3232 3233 3235 3237 3238 3239 3240 3241 3242 3243 3243 3243 3244 3244 3245 3245 3245 3245 3246 3246
3215 3215 3215 3215 3213 3213 3211 3209 3208 3209 3209 3209 3209 3211 3212 3213 3215 3217 3218 3218 3219 3220 3222 3223 3225 3226 3228 3230 3231 3232 3232 3233 3235 3237 3239 3240 3241 3242 3242 3243 3243 3243 3243 3243 3244 3244 3244 3245 3244
3215 3214 3214 3213 3213 3213 3211 3207 3203 3204 3207 3207 3207 3207 3209 3211 3213 3214 3216 3218 3218 3220 3221 3221 3223 3224 3226 3228 3229 3231 3231 3232 3234 3236 3237 3238 3239 3240 3241 3242 3242 3242 3243 3243 3243 3243 3243 3243 3243
3215 3214 3213 3211 3210 3210 3209 3208 3205 3204 3206 3206 3205 3205 3204 3206 3209 3211 3214 3218 3219 3218 3219 3219 3220 3221 3223 3226 3227 3229 3230 3231 3232 3234 3235 3237 3238 3239 3240 3241 3241 3241 3241 3241 3242 3242 3242 3241 3241
3213 3213 3211 3209 3208 3209 3208 3208 3205 3203 3202 3202 3202 3201 3202 3201 3204 3208 3211 3214 3216 3216 3217 3217 3217 3220 3222 3224 3226 3227 3229 3230 3230 3232 3233 3235 3236 3237 3238 3239 3239 3240 3240 3240 3239 3240 3240 3240 3239
3213 3212 3211 3210 3208 3207 3207 3207 3205 3204 3201 3199 3199 3198 3199 3200 3202 3205 3208 3211 3213 3214 3215 3216 3217 3219 3220 3222 3223 3225 3227 3228 3229 3230 3230 3232 3233 3235 3236 3236 3236 3237 3237 3237 3237 3238 3238 3238 3237
3213 3213 3212 3213 3210 3209 3207 3207 3205 3203 3199 3196 3195 3195 3197 3198 3201 3204 3207 3209 3211 3213 3214 3215 3217 3218 3219 3221 3221 3222 3223 3224 3226 3227 3228 3229 3230 3232 3233 3233 3234 3234 3234 3234 3234 3235 3236 3235 3235
3212 3213 3214 3212 3211 3210 3208 3207 3203 3202 3199 3196 3194 3194 3196 3197 3200 3203 3206 3208 3209 3211 3213 3215 3215 3215 3217 3219 3218 3218 3219 3221 3222 3224 3226 3227 3227 3228 3229 3231 3231 3231 3231 3231 3231 3231 3233 3233 3233
3212 3213 3213 3212 3211 3209 3207 3206 3204 3200 3198 3196 3194 3195 3195 3197 3200 3203 3205 3206 3206 3207 3208 3209 3210 3211 3212 3210 3214 3214 3214 3216 3219 3219 3221 3223 3225 3224 3225 3227 3229 3228 3228 3228 3228 3228 3229 3229 3228
3212 3211 3211 3212 3212 3209 3206 3206 3204 3202 3199 3198 3197 3197 3197 3198 3200 3201 3204 3205 3206 3205 3205 3205 3205 3206 3208 3207 3210 3212 3212 3211 3213 3217 3216 3218 3221 3222 3221 3223 3224 3225 3225 3225 3225 3225 3226 3225 3224
3209 3210 3210 3211 3212 3210 3209 3207 3203 3202 3201 3201 3200 3200 3199 3200 3200 3202 3204 3205 3204 3203 3203 3203 3203 3201 3202 3205 3202 3204 3211 3210 3210 3213 3213 3214 3216 3218 3218 3218 3220 3221 3222 3221 3221 3221 3222 3221 3220